Astoria, OR

11:22 AM PDT on April 19, 2018 (GMT -0700)
Astoria Regional

Weather History for KAST - August, 2014

Change the Weather History Date:

Friday, August 15, 2014

  Actual Average Record
Temperature  
Mean Temperature 63 °F 61 °F  
Max Temperature 68 °F 69 °F 89 °F (1919)
Min Temperature 58 °F 53 °F 45 °F (1982)
Degree Days  
Heating Degree Days 2 4  
Month to date heating degree days 26 60  
Since 1 June heating degree days 311 452  
Since 1 July heating degree days 131 210  
Cooling Degree Days 0 0  
Month to date cooling degree days 2 0  
Year to date cooling degree days 21 3  
Since 1 June cooling degree days 10 3  
Growing Degree Days 14 (Base 50)    
Moisture  
Dew Point 59 °F    
Average Humidity 88    
Maximum Humidity 97    
Minimum Humidity 78    
Precipitation  
Precipitation T in 0.03 in 1.05 in (1950)
Month to date precipitation 0.56 0.42  
Year to date precipitation 42.17 37.36  
Sea Level Pressure  
Sea Level Pressure 30.04 in    
Wind  
Wind Speed 4 mph (WSW)    
Max Wind Speed 8 mph    
Max Gust Speed 12 mph    
Visibility 10 miles    
Events Rain    
T = Trace of Precipitation, MM = Missing Value Source: NWS Daily Summary

Daily Weather History Graph

Daily Weather History Graph

Search for Another Location

Airport or City:

Astronomy

Aug. 15, 2014 Rise Set
Actual Time 6:14 AM PDT 8:24 PM PDT
Civil Twilight 5:42 AM PDT 8:56 PM PDT
Nautical Twilight 5:01 AM PDT 9:37 PM PDT
Astronomical Twilight 4:16 AM PDT 10:22 PM PDT
Moon 11:07 PM PDT (8/15) 12:25 PM PDT (8/15)
Length of Visible Light 15h 14m
Length of Day
14h 09m
Waning Gibbous, 68% of the Moon is Illuminated
Aug 15
Waning Gibbous
Aug 17
Last Quarter
Aug 25
New
Sep 2
First Quarter
Sep 8
Full

Hourly Weather History & Observations

Time (PDT) Temp. Dew Point Humidity Pressure Visibility Wind Dir Wind Speed Gust Speed Precip Events Conditions
12:38 AM 59.0 °F 57.9 °F 96% 29.99 in 10.0 mi SW 3.5 mph - N/A   Overcast
12:55 AM 59.0 °F 57.9 °F 96% 29.99 in 10.0 mi SSW 3.5 mph - N/A   Overcast
1:15 AM 59.0 °F 57.9 °F 96% 29.99 in 10.0 mi South 4.6 mph - N/A   Mostly Cloudy
1:55 AM 59.0 °F 57.9 °F 96% 29.99 in 9.0 mi Calm Calm - 0.00 in   Mostly Cloudy
2:55 AM 57.9 °F 57.0 °F 97% 29.99 in 7.0 mi WSW 4.6 mph - 0.00 in Rain Light Rain
3:55 AM 57.9 °F 57.0 °F 97% 30.00 in 7.0 mi SW 4.6 mph - 0.00 in   Partly Cloudy
4:55 AM 59.0 °F 57.9 °F 96% 29.99 in 10.0 mi SW 3.5 mph - N/A   Overcast
5:55 AM 59.0 °F 57.9 °F 96% 30.00 in 10.0 mi WSW 3.5 mph - N/A   Overcast
6:55 AM 60.1 °F 59.0 °F 96% 30.01 in 10.0 mi Calm Calm - N/A   Overcast
7:04 AM 60.1 °F 57.9 °F 93% 30.01 in 10.0 mi Calm Calm - N/A   Overcast
7:22 AM 60.1 °F 59.0 °F 96% 30.02 in 10.0 mi Calm Calm - N/A   Overcast
7:43 AM 60.1 °F 59.0 °F 96% 30.02 in 10.0 mi Calm Calm - N/A   Overcast
7:55 AM 60.1 °F 59.0 °F 96% 30.02 in 10.0 mi Calm Calm - N/A   Overcast
8:12 AM 60.1 °F 57.9 °F 93% 30.03 in 10.0 mi Calm Calm - N/A   Overcast
8:25 AM 60.1 °F 59.0 °F 96% 30.03 in 10.0 mi WSW 3.5 mph - N/A   Overcast
8:36 AM 61.0 °F 59.0 °F 93% 30.03 in 10.0 mi Calm Calm - N/A   Overcast
8:55 AM 61.0 °F 59.0 °F 93% 30.04 in 10.0 mi Calm Calm - N/A   Overcast
9:07 AM 61.0 °F 59.0 °F 93% 30.04 in 10.0 mi Calm Calm - N/A   Overcast
9:25 AM 62.1 °F 59.0 °F 90% 30.04 in 10.0 mi Calm Calm - N/A   Overcast
9:55 AM 63.0 °F 60.1 °F 90% 30.05 in 10.0 mi Calm Calm - N/A   Overcast
10:21 AM 64.0 °F 60.1 °F 87% 30.05 in 10.0 mi Calm Calm - N/A   Overcast
10:29 AM 64.9 °F 60.1 °F 84% 30.05 in 10.0 mi Calm Calm - N/A   Overcast
10:36 AM 64.9 °F 60.1 °F 84% 30.04 in 10.0 mi Calm Calm - N/A   Overcast
10:51 AM 64.4 °F 60.8 °F 88% 30.05 in 10.0 mi Calm Calm - N/A   Overcast
10:55 AM 66.0 °F 60.1 °F 81% 30.05 in 10.0 mi Calm Calm - N/A   Overcast
11:10 AM 66.0 °F 60.1 °F 81% 30.05 in 10.0 mi Calm Calm - N/A   Overcast
11:22 AM 66.0 °F 60.1 °F 81% 30.06 in 10.0 mi Calm Calm - N/A   Overcast
11:55 AM 64.0 °F 60.1 °F 87% 30.06 in 10.0 mi West 5.8 mph - N/A   Overcast
12:15 PM 64.0 °F 60.1 °F 87% 30.06 in 10.0 mi WSW 5.8 mph - N/A   Overcast
12:55 PM 64.0 °F 59.0 °F 84% 30.06 in 10.0 mi West 6.9 mph - N/A   Overcast
1:55 PM 64.0 °F 59.0 °F 84% 30.07 in 10.0 mi West 5.8 mph - N/A   Overcast
2:55 PM 66.9 °F 59.0 °F 76% 30.06 in 10.0 mi West 5.8 mph - N/A   Overcast
3:55 PM 66.9 °F 60.1 °F 79% 30.06 in 10.0 mi Variable 4.6 mph - N/A   Overcast
4:36 PM 68.0 °F 60.1 °F 76% 30.06 in 10.0 mi West 6.9 mph - N/A   Overcast
4:55 PM 66.9 °F 60.1 °F 79% 30.06 in 10.0 mi West 8.1 mph - N/A   Overcast
5:02 PM 66.0 °F 59.0 °F 78% 30.06 in 10.0 mi West 8.1 mph - N/A   Overcast
5:55 PM 64.9 °F 59.0 °F 81% 30.06 in 10.0 mi West 6.9 mph - N/A   Overcast
6:55 PM 64.0 °F 59.0 °F 84% 30.06 in 10.0 mi WNW 5.8 mph - N/A   Overcast
7:55 PM 63.0 °F 59.0 °F 87% 30.06 in 10.0 mi West 3.5 mph - N/A   Overcast
8:55 PM 62.1 °F 59.0 °F 90% 30.07 in 10.0 mi SW 3.5 mph - N/A   Overcast
10:55 PM 61.0 °F 59.0 °F 93% 30.08 in 10.0 mi SW 4.6 mph - N/A   Overcast
11:55 PM 62.1 °F 59.0 °F 90% 30.07 in 10.0 mi SE 3.5 mph - N/A   Overcast